Location: Krasnoyarskiy Pitomnik
(51.1333°N, 71.6167°E)
Time: 09:23:17
(UTC+00:00)

Cosmos 371 Rocket - Pass Details

Date: 22 October 2021
Orbit: 684 x 699 km, 74.0° (Epoch: 06 December)

Event Time Altitude Azimuth Distance (km) Brightness Sun altitude
Rises 13:29:47 0° 190° (S) 3,057 6.8 -13.7°
Reaches altitude 10° 13:32:06 10° 186° (S) 2,147 5.9 -14.1°
Maximum altitude 13:36:50 57° 109° (ESE) 820 3.3 -14.8°
Drops below altitude 10° 13:41:38 10° 31° (NNE) 2,171 5.6 -15.6°
Enters shadow 13:43:56 - 28° (NNE) 3,071 6.4 -15.9°
